Regional Weather Roundup
Issued by NWS

Home | Current Version | Previous Version | Graphics & Text | Print | Product List | Glossary On
Versions: 1 2 3 4 5 6 7 8 9 10 11 12 13 14 15 16 17 18 19 20 21 22 23 24 25 26 27 28 29 30 31 32 33 34 35 36 37 38 39 40 41 42 43 44 45 46 47
000
ASUS43 KDMX 150707
RWRIA

WEATHER ROUNDUP FOR IOWA
NATIONAL WEATHER SERVICE DES MOINES IA
200 AM CDT MON SEP 15 2014

NOTE: "FAIR" INDICATES FEW OR NO CLOUDS BELOW 12,000 FEET WITH NO
SIGNIFICANT WEATHER AND/OR OBSTRUCTIONS TO VISIBILITY.

* - THESE STATIONS ARE NOT NWS STATIONS...THUS NOT UNDER NWS
QUALITY CONTROL.  THEY ALSO DO NOT REPORT WEATHER SUCH
AS PRECIPITATION OR FOG.

IAZ001>003-012>014-020>022-031>034-043>046-150800-
   NORTHWEST IOWA

CITY           SKY/WX    TMP DP  RH WIND       PRES   REMARKS
CARROLL *      CLOUDY    57  55  94 SE5       30.07S
CHEROKEE *     CLOUDY    54  48  82 NE5       30.11S
DENISON *      CLOUDY    59  55  88 CALM      30.06S
LE MARS *      CLOUDY    55  48  76 NE9G17    30.11S
ORANGE CITY *  CLOUDY    55  45  67 E7        30.11S
SHELDON *      CLOUDY    52  46  82 NE10      30.12R
SIOUX CITY     MOCLDY    55  51  86 N7        30.09R
SPENCER        CLOUDY    52  45  77 NE9       30.13S
STORM LAKE *   PTCLDY    52  48  87 NE9G16    30.11R
$$

IAZ055>058-069>071-079>083-090>094-150800-
   SOUTHWEST IOWA

CITY           SKY/WX    TMP DP  RH WIND       PRES   REMARKS
ATLANTIC *     LGT RAIN  59  55  88 CALM      30.08F
AUDUBON *      CLOUDY    61  57  88 S5        30.09S
CLARINDA *     CLOUDY    63  57  82 E3        30.09R
COUNCIL BLFS * LGT RAIN  59  59 100 SE6       30.07R
CRESTON *      CLOUDY    59  55  88 E5        30.10S
HARLAN  *      CLOUDY    59  55  88 SW3       30.12R
LAMONI         CLOUDY    60  54  80 SE5       30.10F
SHENANDOAH *   CLOUDY    63  59  88 NE6       30.07R
$$

IAZ047>049-059>061-072>074-084-150800-
   CENTRAL IOWA

CITY           SKY/WX    TMP DP  RH WIND       PRES   REMARKS
AMES           CLOUDY    55  54  96 SE3       30.09F
ANKENY *       CLOUDY    59  55  88 S5        30.09F
CHARITON *     CLOUDY    59  55  88 SE5       30.11F
DES MOINES     CLOUDY    63  51  65 E5        30.10F
GRINNELL*      CLOUDY    57  50  77 SE5       30.12F
KNOXVILLE *    CLOUDY    59  52  77 SE5       30.10F
MARSHALLTOWN   CLOUDY    52  50  93 E7        30.10F
PELLA *        CLOUDY    59  52  77 E3        30.12F
PERRY *        CLOUDY    59  54  82 S6        30.07F
$$

IAZ004>006-015-016-023>025-035-036-150800-
   NORTH CENTRAL IOWA

CITY           SKY/WX    TMP DP  RH WIND       PRES   REMARKS
ALGONA *       CLOUDY    54  48  82 NE7       30.13S
CLARION *        N/A     54  52  94 NE7       30.11S
ESTHERVILLE    LGT RAIN  49  47  93 N8        30.15R
FORT DODGE *   MOCLDY    54  50  87 N3        30.11R
MASON CITY     CLOUDY    52  48  86 N3        30.15S
FOREST CITY *  CLOUDY    54  46  76 NE5       30.13S
IOWA FALLS *   CLOUDY    52  48  87 CALM      30.11F
$$

IAZ007>011-017>019-026>030-037>042-050>054-066-150800-
   NORTHEAST IOWA

CITY           SKY/WX    TMP DP  RH WIND       PRES   REMARKS
CEDAR RAPIDS   CLOUDY    53  51  93 SE3       30.13F
CHARLES CITY * CLOUDY    52  50  93 N8        30.13S
CLINTON *      PTCLDY    46  43  87 SE3       30.18S
DECORAH *      CLOUDY    52  48  87 CALM      30.13S
DUBUQUE        PTCLDY    48  45  89 S5        30.15S
MONTICELLO *   PTCLDY    48  48 100 E3        30.14S
OELWEIN *      CLOUDY    50  50 100 S6        30.14S
WATERLOO       CLOUDY    52  49  89 SE5       30.11F
$$

IAZ064-065-067-068-078-150800-
   EAST CENTRAL IOWA

CITY           SKY/WX    TMP DP  RH WIND       PRES   REMARKS
DAVENPORT      MOCLDY    50  46  86 CALM      30.15F
IOWA CITY      CLOUDY    54  51  90 SE3       30.15S
MT. PLEASANT * CLOUDY    57  50  77 SE5       30.14F
MUSCATINE *    CLOUDY    55  52  88 CALM      30.15S
QUAD CITIES    MOCLDY    51  48  89 SE3       30.15F
$$

IAZ062-063-075>077-085>089-095>099-150800-
   SOUTHEAST IOWA

CITY           SKY/WX    TMP DP  RH WIND       PRES   REMARKS
BURLINGTON     CLOUDY    57  54  89 CALM      30.15S
FAIRFIELD *    CLOUDY    59  52  77 CALM      30.13F
FORT MADISON * CLOUDY    61  50  67 S6        30.15F
KEOKUK *       CLOUDY    59  54  82 SE3       30.14F
OSKALOOSA *    CLOUDY    57  54  88 CALM      30.12F
CENTERVILLE *  CLOUDY    57  55  94 CALM      30.13F
OTTUMWA        CLOUDY    57  52  83 SE3       30.12F
WASHINGTON *   CLOUDY    57  52  82 CALM      30.14S
$$

ABBREVIATIONS USED IN REMARKS
   TC - TEMPERATURES IN CELSIUS
  WCI - WIND CHILL INDEX
   HX - HEAT INDEX
  VSB - VISIBILITY
$$



USA.gov is the U.S. government's official web portal to all federal, state and local government web resources and services.